TimeEDT,TemperatureF,Dew PointF,Humidity,Sea Level PressureIn,VisibilityMPH,Wind Direction,Wind SpeedMPH,Gust SpeedMPH,PrecipitationIn,Events,Conditions,WindDirDegrees,DateUTC
12:15 AM,71.6,59.0,64,30.00,10.0,Calm,Calm,-,N/A,,Clear,0,2013-05-16 04:15:00
12:35 AM,69.8,59.0,68,29.99,10.0,Calm,Calm,-,N/A,,Clear,0,2013-05-16 04:35:00
12:55 AM,69.8,59.0,68,30.00,10.0,Calm,Calm,-,N/A,,Clear,0,2013-05-16 04:55:00
1:15 AM,69.8,59.0,68,29.99,10.0,Calm,Calm,-,N/A,,Clear,0,2013-05-16 05:15:00
1:35 AM,68.0,59.0,73,29.99,10.0,Calm,Calm,-,N/A,,Clear,0,2013-05-16 05:35:00
1:55 AM,68.0,59.0,73,29.99,10.0,Calm,Calm,-,N/A,,Clear,0,2013-05-16 05:55:00
2:15 AM,68.0,59.0,73,29.98,10.0,Calm,Calm,-,N/A,,Clear,0,2013-05-16 06:15:00
2:35 AM,68.0,59.0,73,29.98,10.0,Calm,Calm,-,N/A,,Clear,0,2013-05-16 06:35:00
2:55 AM,68.0,59.0,73,29.97,10.0,Calm,Calm,-,N/A,,Clear,0,2013-05-16 06:55:00
3:15 AM,66.2,59.0,78,29.97,10.0,Calm,Calm,-,N/A,,Clear,0,2013-05-16 07:15:00
3:35 AM,66.2,59.0,78,29.97,10.0,Calm,Calm,-,N/A,,Clear,0,2013-05-16 07:35:00
3:55 AM,64.4,59.0,83,29.97,10.0,Calm,Calm,-,N/A,,Clear,0,2013-05-16 07:55:00
4:15 AM,64.4,57.2,77,29.97,10.0,Calm,Calm,-,N/A,,Clear,0,2013-05-16 08:15:00
4:35 AM,64.4,57.2,77,29.97,10.0,Calm,Calm,-,N/A,,Clear,0,2013-05-16 08:35:00
4:55 AM,64.4,57.2,77,29.97,10.0,Calm,Calm,-,N/A,,Clear,0,2013-05-16 08:55:00
5:15 AM,62.6,57.2,82,29.97,10.0,Calm,Calm,-,N/A,,Clear,0,2013-05-16 09:15:00
5:35 AM,60.8,59.0,94,29.98,10.0,Calm,Calm,-,N/A,,Clear,0,2013-05-16 09:35:00
5:55 AM,60.8,57.2,88,29.98,10.0,Calm,Calm,-,N/A,,Clear,0,2013-05-16 09:55:00
6:15 AM,60.8,59.0,94,29.98,10.0,Calm,Calm,-,N/A,,Clear,0,2013-05-16 10:15:00
6:35 AM,62.6,59.0,88,29.99,10.0,Calm,Calm,-,N/A,,Clear,0,2013-05-16 10:35:00
6:55 AM,62.6,59.0,88,30.00,10.0,Calm,Calm,-,N/A,,Clear,0,2013-05-16 10:55:00
7:15 AM,64.4,59.0,83,30.00,10.0,Calm,Calm,-,N/A,,Clear,0,2013-05-16 11:15:00
7:35 AM,68.0,59.0,73,30.01,10.0,Calm,Calm,-,N/A,,Clear,0,2013-05-16 11:35:00
7:55 AM,68.0,59.0,73,30.01,10.0,Calm,Calm,-,N/A,,Clear,0,2013-05-16 11:55:00
8:15 AM,69.8,59.0,68,30.02,10.0,Calm,Calm,-,N/A,,Clear,0,2013-05-16 12:15:00
8:35 AM,71.6,59.0,64,30.02,10.0,Calm,Calm,-,N/A,,Clear,0,2013-05-16 12:35:00
8:55 AM,73.4,59.0,61,30.02,10.0,WSW,5.8,-,N/A,,Clear,240,2013-05-16 12:55:00
9:15 AM,73.4,59.0,61,30.03,10.0,West,3.5,-,N/A,,Clear,270,2013-05-16 13:15:00
9:35 AM,77.0,59.0,54,30.03,10.0,Calm,Calm,-,N/A,,Clear,0,2013-05-16 13:35:00
9:55 AM,77.0,59.0,54,30.03,10.0,Calm,Calm,-,N/A,,Clear,0,2013-05-16 13:55:00
10:15 AM,78.8,59.0,51,30.04,10.0,Calm,Calm,-,N/A,,Clear,0,2013-05-16 14:15:00
10:35 AM,80.6,59.0,48,30.04,10.0,Calm,Calm,-,N/A,,Clear,0,2013-05-16 14:35:00
10:55 AM,82.4,59.0,45,30.04,10.0,SW,3.5,-,N/A,,Clear,220,2013-05-16 14:55:00
11:15 AM,82.4,59.0,45,30.04,10.0,Calm,Calm,-,N/A,,Clear,0,2013-05-16 15:15:00
11:35 AM,84.2,57.2,40,30.04,10.0,WSW,6.9,-,N/A,,Clear,240,2013-05-16 15:35:00
11:55 AM,86.0,53.6,33,30.04,10.0,WSW,5.8,-,N/A,,Clear,240,2013-05-16 15:55:00
12:15 PM,86.0,50.0,29,30.04,10.0,WSW,11.5,18.4,N/A,,Clear,250,2013-05-16 16:15:00
12:35 PM,86.0,48.2,27,30.03,10.0,WSW,8.1,-,N/A,,Clear,250,2013-05-16 16:35:00
12:55 PM,86.0,51.8,31,30.03,10.0,Calm,Calm,-,N/A,,Clear,0,2013-05-16 16:55:00
1:15 PM,87.8,53.6,31,30.02,10.0,WSW,5.8,-,N/A,,Clear,240,2013-05-16 17:15:00
1:35 PM,86.0,51.8,31,30.02,10.0,WSW,8.1,18.4,N/A,,Clear,250,2013-05-16 17:35:00
1:55 PM,86.0,51.8,31,30.02,10.0,WSW,9.2,-,N/A,,Clear,240,2013-05-16 17:55:00
2:15 PM,86.0,53.6,33,30.02,10.0,WSW,8.1,-,N/A,,Clear,240,2013-05-16 18:15:00
2:35 PM,84.2,53.6,35,30.02,10.0,WSW,9.2,-,N/A,,Clear,250,2013-05-16 18:35:00
3:15 PM,86.0,55.4,35,30.02,10.0,WSW,9.2,-,N/A,,Clear,250,2013-05-16 19:15:00
3:35 PM,84.2,55.4,37,30.01,10.0,WSW,9.2,-,N/A,,Clear,250,2013-05-16 19:35:00
3:55 PM,84.2,53.6,35,30.01,10.0,WSW,4.6,-,N/A,,Clear,250,2013-05-16 19:55:00
4:15 PM,86.0,55.4,35,30.00,10.0,WSW,6.9,-,N/A,,Clear,240,2013-05-16 20:15:00
4:35 PM,82.4,55.4,39,30.00,10.0,WSW,6.9,-,N/A,,Clear,240,2013-05-16 20:35:00
4:55 PM,82.4,55.4,39,29.99,10.0,WSW,4.6,-,N/A,,Clear,250,2013-05-16 20:55:00
5:15 PM,82.4,59.0,45,29.99,10.0,Calm,Calm,-,N/A,,Clear,0,2013-05-16 21:15:00
5:35 PM,80.6,59.0,48,29.99,10.0,WSW,4.6,-,N/A,,Clear,240,2013-05-16 21:35:00
6:15 PM,80.6,59.0,48,29.99,10.0,SW,5.8,-,N/A,,Scattered Clouds,230,2013-05-16 22:15:00
6:35 PM,82.4,59.0,45,29.98,10.0,WSW,8.1,-,N/A,,Clear,240,2013-05-16 22:35:00
6:55 PM,82.4,57.2,42,29.98,10.0,SW,8.1,-,N/A,,Clear,230,2013-05-16 22:55:00
7:15 PM,80.6,57.2,45,29.99,10.0,Calm,Calm,-,N/A,,Clear,0,2013-05-16 23:15:00
7:35 PM,78.8,59.0,51,29.99,10.0,WSW,4.6,-,N/A,,Clear,240,2013-05-16 23:35:00
7:55 PM,78.8,57.2,47,30.00,10.0,West,3.5,-,N/A,,Clear,260,2013-05-16 23:55:00
8:15 PM,77.0,59.0,54,30.01,10.0,Calm,Calm,-,N/A,,Clear,0,2013-05-17 00:15:00
8:35 PM,73.4,59.0,61,30.01,10.0,Calm,Calm,-,N/A,,Clear,0,2013-05-17 00:35:00
8:55 PM,73.4,59.0,61,30.02,10.0,Calm,Calm,-,N/A,,Clear,0,2013-05-17 00:55:00
9:15 PM,69.8,59.0,68,30.02,10.0,Calm,Calm,-,N/A,,Clear,0,2013-05-17 01:15:00
9:35 PM,69.8,59.0,68,30.03,10.0,Calm,Calm,-,N/A,,Clear,0,2013-05-17 01:35:00
9:55 PM,68.0,59.0,73,30.04,10.0,Calm,Calm,-,N/A,,Clear,0,2013-05-17 01:55:00
10:15 PM,69.8,59.0,68,30.04,7.0,Calm,Calm,-,N/A,,Clear,0,2013-05-17 02:15:00
10:35 PM,69.8,59.0,68,30.04,10.0,Calm,Calm,-,N/A,,Clear,0,2013-05-17 02:35:00
10:55 PM,69.8,59.0,68,30.04,7.0,Calm,Calm,-,N/A,,Clear,0,2013-05-17 02:55:00
11:15 PM,71.6,59.0,64,30.04,10.0,Calm,Calm,-,N/A,,Clear,0,2013-05-17 03:15:00
11:35 PM,69.8,60.8,73,30.04,10.0,Calm,Calm,-,N/A,,Clear,0,2013-05-17 03:35:00
11:55 PM,69.8,60.8,73,30.04,10.0,Calm,Calm,-,N/A,,Clear,0,2013-05-17 03:55:00